Simultaneous Nadir Overpasses (SNOs) Predictions

Prediction of SNOs between AQUA and GOES-15 Satellite Orbit:

Table of predicted SNOs for the next 14.0 days since TLE Epoch: 12/6/2019
Index Date Time (AQUA) AQUA Lat,Lon GOES-15 Lat,Lon Distance(km) Time Diff (sec)
1 12/07/2019 21:57:51 0.53,-125.69 -0.00,-128.19 284.66 80
2 12/08/2019 10:19:08 0.52,-130.86 -0.01,-128.22 300.01 80
3 12/10/2019 10:06:57 -0.09,-127.90 -0.01,-128.16 30.30 80
4 12/12/2019 09:54:46 -0.70,-124.94 -0.00,-128.10 359.58 80
5 12/12/2019 22:16:10 -0.40,-130.13 0.02,-128.05 236.66 80
6 12/14/2019 22:03:59 0.21,-127.17 0.01,-127.98 91.76 80
7 12/15/2019 10:25:14 0.88,-132.33 -0.03,-127.99 493.43 80
8 12/16/2019 21:51:47 0.77,-124.20 0.01,-127.90 419.52 80
9 12/17/2019 10:13:03 0.27,-129.38 -0.02,-127.91 165.72 80
10 12/19/2019 10:00:52 -0.30,-126.41 -0.02,-127.83 161.78 80
11 12/19/2019 22:22:16 -0.75,-131.61 0.04,-127.78 434.90 80




NCC Satellite Simultaneous Nadir Overpasses (SNOs) Prediction Service
